EW9778 Weather Reports


time (UTC)temp
C
wind
direction
speed
KPH
gust
KPH
rain 1hr
cm
rain 24hr
cm
rain mn
cm
humidity
%
barometer
mb
20260502194556 23 82 6.4 14.5 0.00 2.41 0.00 52 1018.1
20260502193054 22 101 6.4 16.1 0.00 2.41 0.00 51 1018.3
20260502191549 22 319 8.0 19.3 0.00 2.41 0.00 52 1018.5
20260502190048 22 90 4.8 16.1 0.00 2.41 0.00 53 1018.4
20260502184558 22 92 8.0 14.5 0.00 3.78 0.00 54 1018.6
20260502183041 22 55 6.4 14.5 0.00 3.78 0.00 55 1018.9
20260502181536 21 30 8.0 16.1 0.00 3.78 0.00 56 1019.1
20260502163030 20 30 6.4 17.7 0.00 5.08 0.00 64 1019.5
20260502161517 19 83 4.8 16.1 0.00 5.08 0.00 65 1019.4
20260502151505 17 69 4.8 16.1 0.00 5.13 0.00 73 1019.3
20260502150108 17 88 4.8 12.9 0.00 5.13 0.00 76 1019.3
20260502123004 11 355 1.6 4.8 0.00 5.71 5.13 90 1017.5
20260502121503 11 338 3.2 8.0 0.00 5.71 5.13 90 1017.4
20260502114602 11 360 0.0 4.8 0.00 5.71 5.13 89 1017.2
20260502113057 11 74 1.6 6.4 0.00 5.71 5.13 89 1017.0
20260502111555 11 35 1.6 8.0 0.00 5.71 5.13 89 1016.8
20260502110059 11 360 1.6 4.8 0.00 5.71 5.13 88 1016.7
20260502104531 11 5 1.6 12.9 0.00 6.02 5.13 88 1016.5
20260502103020 11 15 3.2 9.7 0.00 6.02 5.13 88 1016.3
20260502101515 12 78 1.6 4.8 0.00 6.02 5.13 88 1016.3
20260502091505 12 100 1.6 6.4 0.00 7.14 5.13 86 1015.2
20260502080107 12 26 4.8 12.9 0.00 7.47 5.13 89 1014.8
20260502070055 12 80 1.6 8.0 0.00 7.59 5.13 91 1014.8
20260502064551 12 55 3.2 9.7 0.00 7.65 5.13 92 1014.9
20260502063051 12 60 3.2 12.9 0.00 7.65 5.13 92 1014.6
20260502061547 12 96 1.6 9.7 0.00 7.65 5.13 93 1014.5
20260502060051 12 91 4.8 17.7 0.00 7.65 5.13 93 1014.5
20260502054544 12 88 3.2 19.3 0.00 8.13 5.13 94 1014.5
20260502053051 12 5 4.8 12.9 0.00 8.13 5.13 94 1014.5
20260502051541 12 84 4.8 16.1 0.00 8.13 5.13 94 1014.4
20260502050009 12 91 4.8 16.1 0.00 8.13 5.13 94 1014.3
20260502044510 13 90 4.8 11.3 0.00 8.13 5.13 94 1014.3
20260502043037 12 89 4.8 12.9 0.00 8.13 5.13 94 1014.6
20260502041541 12 33 4.8 14.5 0.00 8.13 5.13 94 1014.3
20260502040004 13 119 3.2 22.5 0.03 8.13 5.13 94 1014.5
20260502034503 13 96 4.8 12.9 0.03 8.13 5.13 94 1014.3
20260502033032 13 62 3.2 9.7 0.03 8.13 5.13 95 1014.0
20260502031528 13 58 4.8 12.9 0.03 8.13 5.13 95 1013.7
20260502030123 13 40 3.2 12.9 0.03 8.10 5.08 95 1013.0
20260502024535 13 61 4.8 11.3 0.08 8.10 5.08 95 1012.6
20260502023019 13 83 1.6 14.5 0.08 8.10 5.08 95 1012.6
20260502021517 13 65 6.4 20.9 0.13 8.10 5.08 95 1012.8
20260502020013 13 53 3.2 9.7 0.15 8.05 5.05 95 1012.2
20260502014523 14 360 4.8 9.7 0.15 8.03 5.03 95 1012.3
20260502013009 14 81 1.6 8.0 0.18 8.03 5.03 95 1011.8
20260502011509 14 65 3.2 9.7 0.20 7.98 4.98 95 1011.3
20260502010038 14 13 8.0 16.1 0.20 7.90 4.90 95 1012.0
20260502004537 14 360 3.2 14.5 0.25 7.87 4.88 95 1011.0
20260502003004 15 53 3.2 6.4 0.25 7.85 4.85 95 1010.4
20260502001504 15 71 3.2 8.0 0.25 7.77 4.78 95 1010.6
20260502000104 14 76 6.4 17.7 0.36 7.70 4.70 95 1010.3
20260501234600 14 42 3.2 19.3 0.30 7.62 4.62 95 1010.8
20260501233056 15 94 6.4 19.3 0.28 7.59 4.60 95 1009.4
20260501231601 15 95 6.4 19.3 0.20 7.52 4.52 95 1009.5
20260501230050 15 120 1.6 12.9 0.03 7.32 4.32 95 1010.2
20260501224552 15 144 4.8 19.3 0.03 7.32 4.32 95 1009.1
20260501223106 15 82 6.4 22.5 0.10 7.32 4.32 95 1009.1
20260501221545 15 101 8.0 20.9 0.25 7.32 4.32 95 1008.9
20260501220042 16 63 4.8 11.3 0.28 7.29 4.29 95 1009.7
20260501214542 16 96 1.6 12.9 0.36 7.29 4.29 95 1009.6
20260501213041 15 56 3.2 17.7 0.43 7.21 4.22 95 1009.9
20260501211540 16 86 1.6 9.7 0.69 7.06 4.06 95 1009.6
20260501210006 16 75 4.8 20.9 0.99 6.99 3.99 95 1008.4
20260501204502 16 72 6.4 17.7 0.94 6.93 3.94 95 1008.4
20260501203107 16 55 4.8 16.1 0.79 6.76 3.76 95 1008.7
20260501201559 16 355 3.2 12.9 0.56 6.32 3.33 95 1008.8
20260501200057 16 72 4.8 16.1 0.25 5.99 3.00 95 1007.8